Home   Weather   41°56'N, 72°36'W   Past weeks
Flag for USA

Past Weather in 41°56'N, 72°36'W, USA — Yesterday and Last 2 Weeks

Now
55 °F

Light rain. Mostly cloudy.


Feels Like: 54 °F
Forecast: 67 / 54 °F
Wind: 6 mph from North

Location: Hartford-Brainard Airport

Current Time: Apr 22, 2019 at 8:48:01 pm

Latest Report: Apr 22, 2019 at 7:53 pm


Visibility: 8 mi

Pressure: 29.99 "Hg

Humidity: 93%

Dew Point: 53 °F

Location of 41°56'N, 72°36'WLocation

Past Weather in 41°56'N, 72°36'W — Graph

°F

41°56'N, 72°36'W Temperature Yesterday

Maximum temperature yesterday: 61 °F (at 12:53 pm)
Minimum temperature yesterday: 50 °F (at 10:43 pm)
Average temperature yesterday: 57 °F

High & Low Weather Summary for the Past Weeks

 TemperatureHumidityPressure
High74 °F (Apr 19, 1:53 pm)97% (Apr 8, 9:53 am)30.33 "Hg (Apr 8, 9:53 am)
Low35 °F (Apr 11, 3:53 am)19% (Apr 16, 4:53 pm)29.25 "Hg (Apr 15, 12:53 pm)
Average54 °F74%29.91 "Hg
* Reported Apr 7 7:53 pm — Apr 22 7:27 pm, 41°56'N, 72°36'W. Weather by CustomWeather, © 2019

Note: Actual official high and low records may vary slightly from our data, if they occured in-between our weather recording intervals... More about our weather records

Advertising

41°56'N, 72°36'W Weather History for the Previous 24 Hours

Scroll right to see more
 ConditionsComfort  
Time TempWeatherWind HumidityBarometerVisibility
7:27 pm
Mon, Apr 22
56 °FRain. Fog.7 mph90%30.00 "Hg3 mi
7:20 pm56 °FLight rain. Fog.7 mph90%30.00 "Hg5 mi
6:53 pm55 °FRain. Fog.9 mph93%30.00 "Hg3 mi
6:37 pm56 °FRain. Fog.10 mph90%30.01 "Hg3 mi
6:23 pm56 °FRain. Fog.8 mph90%30.00 "Hg2 mi
5:53 pm57 °FRain. Fog.8 mph87%30.01 "Hg2 mi
4:53 pm60 °FLight rain. Overcast.12 mph69%29.98 "Hg10 mi
3:53 pm64 °FMostly cloudy.9 mph68%29.95 "Hg10 mi
2:53 pm64 °FMostly cloudy.14 mph61%29.97 "Hg10 mi
1:53 pm67 °FMostly cloudy.18 mph53%29.96 "Hg10 mi
12:53 pm68 °FOvercast.12 mph61%29.98 "Hg10 mi
11:53 am67 °FOvercast.10 mph63%30.01 "Hg10 mi
10:53 am63 °FOvercast.12 mph70%30.03 "Hg10 mi
9:53 am61 °FScattered clouds.12 mph75%30.06 "Hg10 mi
8:53 am56 °FOvercast.12 mph84%30.07 "Hg10 mi
7:53 am54 °FLow clouds.6 mph90%30.09 "Hg9 mi
6:53 am52 °FOvercast.5 mph89%30.08 "Hg10 mi
5:53 am49 °FPassing clouds.No wind97%30.08 "Hg10 mi
4:53 am49 °FPassing clouds.5 mph93%30.06 "Hg10 mi
3:53 am48 °FClear.No wind93%30.08 "Hg9 mi
2:53 am48 °FFog.7 mph93%30.09 "Hg6 mi
1:53 am51 °FClear.5 mph89%30.10 "Hg10 mi
12:53 am50 °FClear.No wind93%30.12 "Hg10 mi
12:17 am50 °FFog.3 mph93%30.11 "Hg3 mi
12:05 am50 °FFog.No wind93%30.10 "Hg2 mi
11:53 pm
Sun, Apr 21
50 °FClear.No wind93%30.10 "Hg7 mi
10:53 pm50 °FClear.No wind93%30.11 "Hg10 mi
10:43 pm50 °FFog.No wind93%30.11 "Hg2 mi
9:53 pm52 °FClear.No wind93%30.11 "Hg10 mi
8:53 pm53 °FClear.No wind89%30.10 "Hg10 mi
Weather by CustomWeather, © 2019

See weather overview